User: anonymous   Login
Location: Radford
(37.1320°N, 80.5770°W)
Time: 06:29:35
(UTC-04:00)
Language:

Okean 1-7 - Orbit

View from above orbital plane
View from above orbital plane
View from above satellite
View from above satellite

Ground track
Ground track

The orbit data is extracted from the following two-line orbital elements,

1 23317U 94066A   15149.84599672  .00000844  00000-0  91960-4 0  9996
2 23317 082.5379 102.6583 0021197 034.7139 356.1491 14.86654914114591
Epoch (UTC): 29 May 2015 20:18:14
Eccentricity: 0.0021197
inclination: 82.5379°
perigee height: 593 km
apogee height: 623 km
right ascension of ascending node: 102.6583°
argument of perigee: 34.7139°
revolutions per day: 14.86654914
mean anomaly at epoch: 356.1491°
orbit number at epoch: 11459

The dashed part of the orbit path shows where the satellite is in the earth's shadow,  

DLR